This demonstration page uses our WeatherBlox Daily Observations layout. Learn more.

41.55636, -103.73856

Hourly Observations for April 27, 2019

Temp ( °F °C ) Dew Point ( °F °C ) Humidity (%) Winds ( mph kmh ) Pressure ( in mb ) Visibility ( mi km ) Precip ( " mm )
12:58 am 00:58 Cloudy with Showers 54 12.1 45 7 71 71 W 17 28 29.81 1010 10 16.0934 0.04 1.016
1:58 am 01:58 Mostly Cloudy 51 10.7 46 7.8 82 82 S 12 19 29.72 1007 10 16.0934 0.03 0.762
2:58 am 02:58 Mostly Cloudy 52 10.9 45 7.1 78 78 W 15 24 29.71 1006 10 16.0934 0.01 0.254
3:58 am 03:58 Mostly Cloudy 49 9.7 43 6.3 80 80 W 12 19 29.68 1005 10 16.0934 0 0
4:58 am 04:58 Mostly Cloudy 53 11.4 40 4.6 63 63 W 21 33 29.66 1004 10 16.0934 0 0
5:58 am 05:58 Cloudy 50 9.8 41 5.2 73 73 NNW 23 37 29.72 1006 10 16.0934 0 0
7:58 am 07:58 Cloudy with Rain 43 6.1 40 4.6 90 90 NNW 20 31 29.86 1011 10 16.0934 0.02 0.508
8:58 am 08:58 Mostly Cloudy 41 5 38 3.3 89 89 NNW 24 39 29.91 1013 10 16.0934 0.02 0.508
9:58 am 09:58 Windy with Rain Showers Likely 40 4.4 37 3 91 91 NW 29 46 29.95 1014 10 16.0934 0 0
10:58 am 10:58 Mostly Cloudy 40 4.2 35 1.4 82 82 NW 24 39 29.92 1013 10 16.0934 0 0
11:58 am 11:58 Partly Cloudy 38 3.3 33 0.6 83 83 NW 20 31 29.94 1014 10 16.0934 0 0
12:58 pm 12:58 Mostly Sunny 39 3.8 34 1 82 82 NNW 23 37 29.95 1014 10 16.0934 0 0
1:58 pm 13:58 Mostly Sunny 41 4.8 35 1.9 82 82 NNW 20 31 29.96 1015 10 16.0934 0 0
2:58 pm 14:58 Mostly Sunny 43 5.9 36 2.2 77 77 N 20 31 29.97 1015 10 16.0934 0 0
3:58 pm 15:58 Mostly Sunny 45 7.2 36 2.3 71 71 N 17 28 29.96 1015 10 16.0934 0 0
4:58 pm 16:58 Mostly Sunny 47 8.6 36 2 64 64 N 14 22 29.93 1013 10 16.0934 0 0
5:58 pm 17:58 Partly Cloudy 49 9.6 35 1.6 58 58 NNE 14 22 29.92 1013 10 16.0934 0 0
6:58 pm 18:58 Sunny 52 11 34 0.9 50 50 NE 13 20 29.88 1012 10 16.0934 0 0
7:58 pm 19:58 Sunny 53 11.4 34 0.9 49 49 NNE 5 7 29.88 1012 10 16.0934 0 0
8:58 pm 20:58 Mostly Cloudy 53 11.4 34 1.3 50 50 Calm 29.87 1011 10 16.0934 0 0
9:58 pm 21:58 Mostly Cloudy 54 12.4 35 1.6 48 48 SSE 14 22 29.83 1010 10 16.0934 0 0
10:58 pm 22:58 Sunny 56 13.6 37 2.7 48 48 SSE 14 22 29.79 1009 10 16.0934 0 0
11:58 pm 23:58 Sunny 55 12.7 36 2.1 49 49 S 18 30 29.78 1009 10 16.0934 0 0

Powered by AerisWeather